Overview Statistics Trail Chart Weather Telemetry Raw packets
 

This is the latest recevied weather packets stored in our database for station/object K7MT-WX. If no packets are shown the sender has not sent any weather packets the latest 10 day(s).

<< 3 4 5 6 7 8 9 >>
Time Temp. Humidity Pressure Rain* Wind** Luminosity Snow
1788513768 14.44° C 58% 1007 hPa 0 mm - - -
1788512868 14.44° C 58% 1006.8 hPa 0 mm - - -
1788511968 14.44° C 58% 1006.9 hPa 0 mm - - -
1788511068 14.44° C 59% 1006.9 hPa 0 mm - - -
1788510168 14.44° C 60% 1007 hPa 0 mm - - -
1788509268 14.44° C 60% 1007.1 hPa 0 mm - - -
1788508368 14.44° C 61% 1007.1 hPa 0 mm - - -
1788507468 13.89° C 64% 1007.1 hPa 0 mm - - -
1788506568 13.89° C 64% 1007.4 hPa 0 mm - - -
1788505668 14.44° C 65% 1007.4 hPa 0 mm - - -
1788504768 14.44° C 65% 1007.5 hPa 0 mm - - -
1788503868 15° C 65% 1007.5 hPa 0 mm - - -
1788502968 15.56° C 63% 1007.6 hPa 0 mm - - -
1788502068 15.56° C 62% 1007.7 hPa 0 mm - - -
1788501168 16.11° C 59% 1007.8 hPa 0 mm - - -
1788500268 16.11° C 60% 1007.7 hPa 0 mm - - -
1788499368 15.56° C 61% 1007.9 hPa 0 mm - - -
1788498468 16.11° C 59% 1008.1 hPa 0 mm - - -
1788497568 16.67° C 56% 1008 hPa 0 mm - - -
1788496668 17.22° C 53% 1007.9 hPa 0 mm - - -
1788495768 17.22° C 54% 1008.1 hPa 0 mm - - -
1788494879 17.78° C 52% 1008.4 hPa 0 mm - - -
1788493968 18.33° C 50% 1008.6 hPa 0 mm - - -
1788493073 18.33° C 47% 1008.5 hPa 0 mm - - -
1788492168 18.89° C 45% 1008.9 hPa 0 mm - - -

* Rain latest hour (hover to see other rain measurements)
** Current wind speed in m/s (hover to see current wind gust speed)